Regional Weather Roundup
Issued by NWS

Home | Current Version | Previous Version | Text Only | Print | Product List | Glossary Off
Versions: 1 2 3 4 5 6 7 8 9 10 11 12 13 14 15 16 17 18 19 20 21 22 23 24 25 26 27 28 29 30 31 32 33 34 35 36 37 38 39 40 41 42 43 44 45 46 47 48 49 50

000
ASUS43 KBIS 282259
RWRND

NORTH DAKOTA REGIONAL WEATHER ROUNDUP
NATIONAL WEATHER SERVICE BISMARCK ND
500 PM CST FRI NOV 28 2014

NOTE: "FAIR" INDICATES FEW OR NO CLOUDS BELOW 12,000 FEET WITH NO
SIGNIFICANT WEATHER AND/OR OBSTRUCTIONS TO VISIBILITY.


NDZ001>003-009>011-017-290000-
NORTHWEST NORTH DAKOTA

CITY           SKY/WX    TMP DP  RH WIND       PRES   REMARKS
WILLISTON      PTCLDY    24  19  81 SE3       29.44F
MINOT          PTCLDY    13   8  81 SE14      29.53F WCI  -2
$$

NDZ018>021-031>035-040>046-290000-
SOUTHWEST NORTH DAKOTA

CITY           SKY/WX    TMP DP  RH WIND       PRES   REMARKS
BISMARCK       PTCLDY    21  16  81 E10       29.57F WCI  10
GARRISON         N/A     16  12  84 E10       29.52F WCI   4
HETTINGER ARPT CLOUDY    43  32  65 S5        29.50F
$$

NDZ004>008-012>016-024-026-027-054-290000-
NORTHEAST NORTH DAKOTA

CITY           SKY/WX    TMP DP  RH WIND       PRES   REMARKS
GRAND FORKS    CLOUDY    16  10  77 SE10      29.76F WCI   4
DEVILS LAKE    MOCLDY    12   1  62 SE15G21   29.63F WCI  -4
$$

NDZ022-023-025-028>030-036>039-047>053-290000-
SOUTHEAST NORTH DAKOTA

CITY           SKY/WX    TMP DP  RH WIND       PRES   REMARKS
FARGO          PTCLDY    17   9  70 E7        29.75F WCI   8
$$



USA.gov is the U.S. government's official web portal to all federal, state and local government web resources and services.